Observations for Trim Market St
| Time | AQI | Temp °C | Hum % | Pres Pa | CO μg/m³ | H₂S μg/m³ | NO μg/m³ | NO₂ μg/m³ | O₃ μg/m³ | SO₂ μg/m³ | PM1 μg/m³ | PM2.5 μg/m³ | PM10 μg/m³ |
|---|---|---|---|---|---|---|---|---|---|---|---|---|---|
| Wednesday 26 August 2026 | |||||||||||||
| 12:47 | 2 | 20.3 | 75 | 11,887 | 0.18 | 0 | 1.42 | 11.28 | 36.58 | 0 | 7.84 | 9.02 | 13.48 |
| 12:43 | 2 | 20.3 | 75 | 11,562 | 0.16 | 0 | 1.19 | 11.09 | 41.34 | 0 | 8.55 | 9.97 | 14.67 |
| 12:37 | 2 | 20.3 | 76 | 5,771 | 0.2 | 0 | 1.54 | 11.51 | 38.89 | 0 | 9.26 | 9.94 | 15.82 |
| 12:35 | 2 | 20.2 | 76 | 3,858 | 0.17 | 0 | 1.16 | 8.26 | 43.07 | 0 | 9.26 | 9.93 | 14.62 |
| 12:34 | 2 | 20.2 | 76 | 2,617 | 0.17 | 0 | 1.37 | 9.5 | 41.53 | 0 | 9.98 | 11.35 | 16.38 |
| 12:28 | 2 | 20.1 | 77 | 2,147,483,647 | 0.18 | 0 | 1.16 | 7.94 | 44.27 | 0 | 8.55 | 9.41 | 12.23 |
| 12:27 | 2 | 20.1 | 77 | 2,147,483,647 | 0.18 | 0 | 1.15 | 9.33 | 42.29 | 0 | 9.26 | 11.3 | 16.9 |
| 12:26 | 2 | 20.1 | 77 | 2,147,483,647 | 0.19 | 0 | 1.27 | 8.88 | 41.46 | 0 | 8.55 | 8.91 | 14.55 |
| 12:25 | 2 | 20.1 | 77 | 2,147,483,647 | 0.19 | 0 | 1.2 | 10.29 | 41.39 | 0 | 9.26 | 9.86 | 15.13 |
| 12:24 | 2 | 20.1 | 77 | 2,147,483,647 | 0.18 | 0 | 1.32 | 9.7 | 39.3 | 0 | 7.13 | 9.38 | 13.96 |
| 12:23 | 2 | 20 | 77 | 2,147,483,647 | 0.22 | 0 | 1.23 | 11.97 | 37.58 | 0 | 8.55 | 9.85 | 15.71 |
| 12:22 | 2 | 20.1 | 77 | 2,147,483,647 | 0.19 | 0 | 1.12 | 9.5 | 40.88 | 0 | 9.26 | 10.32 | 14.53 |
| 12:21 | 2 | 20 | 78 | 2,147,483,647 | 0.22 | 0 | 1.15 | 9.04 | 40.77 | 0 | 8.55 | 9.36 | 14.52 |
| 12:20 | 2 | 20 | 78 | 2,147,483,647 | 0.2 | 0 | 1.31 | 8.83 | 42.87 | 0 | 9.26 | 10.77 | 15.67 |
| 12:19 | 2 | 20 | 78 | 2,147,483,647 | 0.21 | 0 | 1.06 | 9.53 | 33.39 | 0 | 9.26 | 11.24 | 17.41 |
| 12:18 | 2 | 20 | 78 | 2,147,483,647 | 0.24 | 0 | 0.96 | 9.58 | 40.09 | 0 | 8.55 | 11.23 | 15.65 |
| 12:17 | 2 | 19.9 | 78 | 2,147,483,647 | 0.23 | 0 | 1.06 | 13.26 | 32.52 | 0 | 9.98 | 10.27 | 14.48 |
| 12:16 | 2 | 19.9 | 78 | 2,147,483,647 | 0.24 | 0 | 1.1 | 12.58 | 35.83 | 0 | 9.98 | 10.74 | 16.79 |
| 12:15 | 2 | 19.9 | 78 | 2,147,483,647 | 0.24 | 0 | 0.83 | 16.34 | 34.07 | 0 | 9.98 | 11.21 | 16.2 |
| 12:13 | 2 | 19.9 | 78 | 2,147,483,647 | 0.23 | 0 | 0.82 | 11.41 | 34.6 | 0 | 9.98 | 11.19 | 17.34 |